Location: Alvediston
(51.0078°N, 2.0364°W)
Time: 20:22:50
(UTC+00:00)

Cosmos 921 Rocket - Pass Details

Date: 27 February 2020
Orbit: 572 x 631 km, 75.8° (Epoch: 03 April)

Event Time Altitude Azimuth Distance (km) Brightness Sun altitude
Rises 18:34:47 0° 217° (SW) 2,915 7.1 -8.6°
Reaches altitude 10° 18:37:06 10° 223° (SW) 2,012 6.4 -9.0°
Maximum altitude 18:41:27 46° 297° (WNW) 852 4.3 -9.7°
Drops below altitude 10° 18:45:48 10° 12° (NNE) 2,014 5.6 -10.4°
Sets 18:48:08 0° 18° (NNE) 2,919 6.3 -10.7°
